This is the latest recevied weather packets stored in our database for station/object W0SS-13. If no packets are shown the sender has not sent any weather packets the latest 10 day(s).
| Time | Temp. | Humidity | Pressure | Rain* | Wind** | Luminosity | Snow |
|---|---|---|---|---|---|---|---|
| 1778011813 | 10° C | 81% | 1013.2 hPa | 0 mm | - | 176 W/m² | - |
| 1778011511 | 9.44° C | 79% | 1012.9 hPa | 0 mm | - | 205 W/m² | - |
| 1778011208 | 9.44° C | 79% | 1013.1 hPa | 0 mm | - | 163 W/m² | - |
| 1778010904 | 9.44° C | 81% | 1013.2 hPa | 0 mm | - | 184 W/m² | - |
| 1778010601 | 9.44° C | 82% | 1013.3 hPa | 0 mm | - | 157 W/m² | - |
| 1778010299 | 9.44° C | 81% | 1013.4 hPa | 0 mm | - | 157 W/m² | - |
| 1778009999 | 9.44° C | 82% | 1013.3 hPa | 0 mm | - | 109 W/m² | - |
| 1778009696 | 9.44° C | 81% | 1013.3 hPa | 0 mm | - | 126 W/m² | - |
| 1778009393 | 9.44° C | 81% | 1012.9 hPa | 0 mm | - | 147 W/m² | - |
| 1778009091 | 8.89° C | 81% | 1012.9 hPa | 0 mm | - | 203 W/m² | - |
| 1778008783 | 9.44° C | 81% | 1012.7 hPa | 0 mm | - | 157 W/m² | - |
| 1778008482 | 9.44° C | 82% | 1012.9 hPa | 0 mm | - | 183 W/m² | - |
| 1778008178 | 8.89° C | 82% | 1013.2 hPa | 0 mm | - | 173 W/m² | - |
| 1778007874 | 8.89° C | 81% | 1013.1 hPa | 0 mm | - | 187 W/m² | - |
| 1778007569 | 8.89° C | 83% | 1013 hPa | 0 mm | - | 181 W/m² | - |
| 1778007267 | 8.89° C | 83% | 1013.2 hPa | 0 mm | - | 132 W/m² | - |
| 1778006963 | 8.89° C | 85% | 1013.3 hPa | 0 mm | - | 127 W/m² | - |
| 1778006660 | 8.89° C | 84% | 1013.3 hPa | 0 mm | - | 127 W/m² | - |
| 1778006357 | 8.89° C | 84% | 1013.4 hPa | 0 mm | - | 144 W/m² | - |
| 1778006054 | 8.89° C | 84% | 1013.5 hPa | 0 mm | - | 127 W/m² | - |
| 1778005750 | 8.89° C | 85% | 1013.7 hPa | 0 mm | - | 159 W/m² | - |
| 1778005447 | 8.89° C | 85% | 1013.7 hPa | 0 mm | - | 182 W/m² | - |
| 1778005143 | 8.89° C | 84% | 1013.9 hPa | 0 mm | - | 154 W/m² | - |
| 1778004841 | 8.89° C | 84% | 1013.9 hPa | 0 mm | - | 157 W/m² | - |
| 1778004538 | 8.33° C | 84% | 1013.9 hPa | 0 mm | - | 170 W/m² | - |
* Rain latest hour (hover to see other rain measurements)
** Current wind speed in m/s (hover to see current wind gust speed)